Flag for U.S.A. Weather past 2 weeks in Lakewood, New Jersey, U.S.A.

Now
46 °F

Clear.


Feels Like: 43 °F
Forecast: 41 / 62 °F
Wind: 7 mph from Southwest

Location: Belmar-Farmdale

Current Time: Apr 27, 2015 at 12:34:13 AM

Latest Report: Apr 26, 2015 at 11:35 PM


Visibility: 10 mi

Pressure: 29.70 "Hg

Humidity: 46%

Dew point: 27 °F

Location of LakewoodLocation

Historic Weather in Lakewood — Graph

°F

Lakewood temperature yesterday

Maximum temperature yesterday: 57 °F (at 1:55 PM)
Minimum temperature yesterday: 43 °F (at 1:55 AM)
Average temperature yesterday: 50 °F

Past Weeks' High & Low Weather Summary

 TemperatureHumidityPressure
High77 °F (Apr 18, 1:55 PM)88% (Apr 20, 11:15 AM)30.49 "Hg (Apr 20, 11:15 AM)
Low34 °F (Apr 25, 4:15 AM)15% (Apr 15, 5:55 PM)29.55 "Hg (Apr 21, 1:55 AM)
Average54 °F51%29.99 "Hg
* Reported Apr 11 10:35 PM — Apr 26 10:55 PM, Lakewood, Weather by CustomWeather, © 2015

Note: Actual official high and low records may vary slightly from our data, if they occured in-between our weather recording intervals... More about our weather records

Advertising

Lakewood weather history for previous 24 hours

 ConditionsComfort  
Time TempWeatherWind HumidityBarometerVisibility
10:55 PM
Sun, Apr 26
48 °FClear.6 mph43%29.70 "Hg10 mi
10:35 PM48 °FClear.3 mph43%29.70 "Hg10 mi
10:15 PM48 °FClear.7 mph43%29.70 "Hg10 mi
9:55 PM48 °FClear.7 mph43%29.70 "Hg10 mi
9:35 PM48 °FPassing clouds.7 mph43%29.70 "Hg10 mi
9:15 PM50 °FClear.7 mph40%29.70 "Hg10 mi
8:55 PM52 °FClear.6 mph38%29.69 "Hg10 mi
8:35 PM52 °FPassing clouds.6 mph38%29.68 "Hg10 mi
8:15 PM52 °FScattered clouds.5 mph38%29.68 "Hg10 mi
7:55 PM54 °FPartly sunny.3 mph38%29.68 "Hg10 mi
7:35 PM54 °FOvercast.5 mph38%29.67 "Hg10 mi
7:15 PM54 °FOvercast.8 mph38%29.67 "Hg10 mi
6:55 PM54 °FPartly sunny.6 mph38%29.67 "Hg10 mi
6:35 PM55 °FPartly sunny.6 mph38%29.67 "Hg10 mi
5:55 PM55 °FScattered clouds.9 mph36%29.67 "Hg10 mi
5:35 PM57 °FSunny.3 mph33%29.67 "Hg10 mi
5:15 PM57 °FScattered clouds.7 mph33%29.67 "Hg10 mi
4:55 PM57 °FScattered clouds.No wind33%29.67 "Hg10 mi
4:35 PM55 °FSunny.6 mph36%29.67 "Hg10 mi
4:15 PM55 °FPassing clouds.7 mph36%29.67 "Hg10 mi
3:55 PM55 °FPassing clouds.8 mph36%29.67 "Hg10 mi
3:35 PM55 °FPartly sunny.9 mph36%29.67 "Hg10 mi
3:15 PM55 °FOvercast.10 mph38%29.68 "Hg10 mi
2:55 PM57 °FOvercast.12 mph36%29.68 "Hg10 mi
2:35 PM55 °FPartly sunny.9 mph36%29.68 "Hg10 mi
2:15 PM55 °FPartly sunny.5 mph38%29.69 "Hg10 mi
1:55 PM57 °FPassing clouds.7 mph36%29.69 "Hg10 mi
1:35 PM55 °FPassing clouds.12 mph38%29.69 "Hg10 mi
1:15 PM55 °FSunny.10 mph36%29.69 "Hg10 mi
12:55 PM55 °FSunny.10 mph38%29.70 "Hg10 mi
12:35 PM54 °FSunny.10 mph41%29.70 "Hg10 mi
12:15 PM54 °FSunny.10 mph38%29.71 "Hg10 mi
11:55 AM54 °FSunny.8 mph38%29.71 "Hg10 mi
11:35 AM54 °FSunny.8 mph38%29.71 "Hg10 mi
10:55 AM52 °FSunny.10 mph44%29.71 "Hg10 mi
10:35 AM52 °FSunny.8 mph44%29.71 "Hg10 mi
10:15 AM50 °FSunny.12 mph47%29.71 "Hg10 mi
9:55 AM50 °FSunny.12 mph47%29.71 "Hg10 mi
9:35 AM50 °FSunny.10 mph47%29.70 "Hg10 mi
9:15 AM48 °FSunny.9 mph50%29.70 "Hg10 mi
8:55 AM48 °FSunny.13 mph54%29.70 "Hg10 mi
8:35 AM48 °FSunny.12 mph54%29.70 "Hg10 mi
8:15 AM48 °FSunny.9 mph50%29.69 "Hg10 mi
7:55 AM46 °FSunny.9 mph57%29.69 "Hg10 mi
7:15 AM46 °FSunny.12 mph53%29.68 "Hg10 mi
6:55 AM46 °FClear.12 mph53%29.67 "Hg10 mi
6:35 AM45 °FClear.8 mph53%29.67 "Hg10 mi
6:15 AM45 °FClear.9 mph53%29.67 "Hg10 mi
5:55 AM45 °FClear.8 mph53%29.67 "Hg10 mi
5:35 AM45 °FClear.7 mph53%29.65 "Hg10 mi
5:15 AM45 °FClear.7 mph53%29.66 "Hg10 mi
4:55 AM43 °FClear.7 mph61%29.65 "Hg10 mi
4:35 AM43 °FClear.7 mph61%29.65 "Hg10 mi
4:15 AM43 °FClear.6 mph66%29.65 "Hg10 mi
3:55 AM45 °FClear.6 mph66%29.65 "Hg10 mi
3:35 AM45 °FClear.7 mph66%29.65 "Hg10 mi
3:15 AM45 °FClear.8 mph57%29.65 "Hg10 mi
2:55 AM45 °FClear.6 mph53%29.65 "Hg10 mi
2:35 AM43 °FClear.No wind53%29.66 "Hg10 mi
2:15 AM43 °FClear.No wind49%29.66 "Hg10 mi
1:55 AM43 °FClear.5 mph49%29.66 "Hg10 mi
1:35 AM45 °FClear.5 mph46%29.66 "Hg10 mi
1:15 AM45 °FClear.6 mph46%29.67 "Hg10 mi
12:55 AM45 °FClear.5 mph46%29.68 "Hg10 mi
12:35 AM46 °FClear.5 mph43%29.68 "Hg10 mi
12:15 AM46 °FClear.7 mph43%29.69 "Hg10 mi
Weather by CustomWeather, © 2015

See weather overviewHow to use our weather pages